Time,TemperatureF,DewpointF,PressureIn,WindDirection,WindDirectionDegrees,WindSpeedMPH,WindSpeedGustMPH,Humidity,HourlyPrecipIn,Conditions,Clouds,dailyrainin,SoftwareType,DateUTC
2013-05-08 00:01:00,64.1,48.6,29.96,North,351,0.0,0.0,57,0.00,,FEW075,0.00,VWS V14.01,2013-05-08 04:01:00,
2013-05-08 00:02:00,64.0,48.5,29.96,North,351,0.0,0.0,57,0.00,,FEW075,0.00,VWS V14.01,2013-05-08 04:02:00,
2013-05-08 00:03:00,63.9,48.4,29.96,North,351,0.0,0.0,57,0.00,,FEW075,0.00,VWS V14.01,2013-05-08 04:03:00,
2013-05-08 00:04:00,63.8,48.3,29.96,North,351,0.0,0.0,57,0.00,,FEW075,0.00,VWS V14.01,2013-05-08 04:04:00,
2013-05-08 00:05:00,63.7,48.2,29.96,North,351,0.0,0.0,57,0.00,,FEW075,0.00,VWS V14.01,2013-05-08 04:05:00,
2013-05-08 00:10:00,63.3,48.3,29.96,North,351,0.0,0.0,58,0.00,,FEW075,0.00,VWS V14.01,2013-05-08 04:10:00,
2013-05-08 00:16:00,62.8,47.8,29.96,North,351,0.0,0.0,58,0.00,,FEW075,0.00,VWS V14.01,2013-05-08 04:16:00,
2013-05-08 00:21:00,62.5,48.4,29.96,North,351,0.0,0.0,60,0.00,,SCT070,0.00,VWS V14.01,2013-05-08 04:21:00,
2013-05-08 00:26:00,62.1,48.5,29.95,North,351,0.0,0.0,61,0.00,,SCT070,0.00,VWS V14.01,2013-05-08 04:26:00,
2013-05-08 00:31:00,61.7,48.6,29.95,North,351,0.0,0.0,62,0.00,,SCT070,0.00,VWS V14.01,2013-05-08 04:31:00,
2013-05-08 00:36:00,61.3,48.6,29.95,North,351,0.0,0.0,63,0.00,,SCT070,0.00,VWS V14.01,2013-05-08 04:36:00,
2013-05-08 00:41:00,60.9,48.2,29.96,North,351,0.0,1.0,63,0.00,,SCT070,0.00,VWS V14.01,2013-05-08 04:41:00,
2013-05-08 00:46:00,60.5,48.3,29.95,North,351,0.0,0.0,64,0.00,,SCT070,0.00,VWS V14.01,2013-05-08 04:46:00,
2013-05-08 00:51:00,60.4,48.6,29.95,North,351,0.0,0.0,65,0.00,,SCT070,0.00,VWS V14.01,2013-05-08 04:51:00,
2013-05-08 00:56:00,60.2,48.8,29.95,North,351,0.0,0.0,66,0.00,,SCT070,0.00,VWS V14.01,2013-05-08 04:56:00,
2013-05-08 01:01:00,59.9,48.5,29.95,North,351,0.0,0.0,66,0.00,,SCT070,0.00,VWS V14.01,2013-05-08 05:01:00,
2013-05-08 01:06:00,59.6,48.6,29.95,North,351,0.0,1.0,67,0.00,,SCT070,0.00,VWS V14.01,2013-05-08 05:06:00,
2013-05-08 01:11:00,59.4,48.5,29.95,North,351,0.0,0.0,67,0.00,,SCT070,0.00,VWS V14.01,2013-05-08 05:11:00,
2013-05-08 01:16:00,59.1,48.6,29.95,North,351,0.0,0.0,68,0.00,,SCT070,0.00,VWS V14.01,2013-05-08 05:16:00,
2013-05-08 01:21:00,58.9,48.8,29.95,North,351,0.0,0.0,69,0.00,,BKN090,0.00,VWS V14.01,2013-05-08 05:21:00,
2013-05-08 01:26:00,58.7,49.3,29.95,North,351,0.0,0.0,71,0.00,,BKN090,0.00,VWS V14.01,2013-05-08 05:26:00,
2013-05-08 01:31:00,58.6,49.2,29.95,North,351,0.0,0.0,71,0.00,,BKN090,0.00,VWS V14.01,2013-05-08 05:31:00,
2013-05-08 01:36:00,58.5,49.5,29.95,North,351,0.0,0.0,72,0.00,,BKN090,0.00,VWS V14.01,2013-05-08 05:36:00,
2013-05-08 01:41:00,58.2,49.2,29.95,North,351,0.0,0.0,72,0.00,,BKN090,0.00,VWS V14.01,2013-05-08 05:41:00,
2013-05-08 01:46:00,58.1,49.5,29.95,North,351,0.0,0.0,73,0.00,,BKN090,0.00,VWS V14.01,2013-05-08 05:46:00,
2013-05-08 01:51:00,58.0,49.8,29.95,North,351,0.0,0.0,74,0.00,,BKN090,0.00,VWS V14.01,2013-05-08 05:51:00,
2013-05-08 01:56:00,57.8,49.6,29.94,North,351,0.0,0.0,74,0.00,,BKN090,0.00,VWS V14.01,2013-05-08 05:56:00,
2013-05-08 02:01:00,57.6,49.8,29.94,North,351,0.0,1.0,75,0.00,,BKN090,0.00,VWS V14.01,2013-05-08 06:01:00,
2013-05-08 02:06:00,57.4,49.5,29.94,North,351,0.0,0.0,75,0.00,,BKN090,0.00,VWS V14.01,2013-05-08 06:06:00,
2013-05-08 02:11:00,57.3,49.8,29.94,North,351,0.0,0.0,76,0.00,,BKN090,0.00,VWS V14.01,2013-05-08 06:11:00,
2013-05-08 02:16:00,57.2,50.1,29.94,North,351,0.0,0.0,77,0.00,,BKN090,0.00,VWS V14.01,2013-05-08 06:16:00,
2013-05-08 02:21:00,57.1,50.0,29.94,North,351,0.0,0.0,77,0.00,,CLR,0.00,VWS V14.01,2013-05-08 06:21:00,
2013-05-08 02:27:00,56.9,50.1,29.94,North,351,0.0,0.0,78,0.00,,CLR,0.00,VWS V14.01,2013-05-08 06:27:00,
2013-05-08 02:32:00,56.8,50.0,29.94,North,351,0.0,0.0,78,0.00,,CLR,0.00,VWS V14.01,2013-05-08 06:32:00,
2013-05-08 02:37:00,56.7,50.3,29.94,North,351,0.0,1.0,79,0.00,,CLR,0.00,VWS V14.01,2013-05-08 06:37:00,
2013-05-08 02:42:00,56.6,50.2,29.94,North,351,0.0,0.0,79,0.00,,CLR,0.00,VWS V14.01,2013-05-08 06:42:00,
2013-05-08 02:47:00,56.5,50.1,29.94,North,351,0.0,0.0,79,0.00,,CLR,0.00,VWS V14.01,2013-05-08 06:47:00,
2013-05-08 02:52:00,56.6,50.5,29.94,North,351,2.0,4.0,80,0.00,,CLR,0.00,VWS V14.01,2013-05-08 06:52:00,
2013-05-08 02:57:00,56.9,50.8,29.94,North,351,0.0,0.0,80,0.00,,CLR,0.00,VWS V14.01,2013-05-08 06:57:00,
2013-05-08 03:02:00,57.4,51.0,29.94,North,351,0.0,0.0,79,0.00,,CLR,0.00,VWS V14.01,2013-05-08 07:02:00,
2013-05-08 03:07:00,57.8,51.3,29.94,North,351,0.0,0.0,79,0.00,,CLR,0.00,VWS V14.01,2013-05-08 07:07:00,
2013-05-08 03:12:00,58.1,51.3,29.94,North,351,0.0,0.0,78,0.00,,CLR,0.00,VWS V14.01,2013-05-08 07:12:00,
2013-05-08 03:17:00,58.2,51.0,29.94,North,351,0.0,0.0,77,0.00,,CLR,0.00,VWS V14.01,2013-05-08 07:17:00,
2013-05-08 03:22:00,58.2,51.0,29.94,North,351,0.0,0.0,77,0.00,,CLR,0.00,VWS V14.01,2013-05-08 07:22:00,
2013-05-08 03:27:00,58.2,50.7,29.94,North,351,0.0,0.0,76,0.00,,CLR,0.00,VWS V14.01,2013-05-08 07:27:00,
2013-05-08 03:32:00,58.2,50.7,29.94,North,351,0.0,0.0,76,0.00,,CLR,0.00,VWS V14.01,2013-05-08 07:32:00,
2013-05-08 03:37:00,58.1,50.6,29.94,North,351,0.0,0.0,76,0.00,,CLR,0.00,VWS V14.01,2013-05-08 07:37:00,
2013-05-08 03:42:00,58.0,50.1,29.94,North,351,0.0,0.0,75,0.00,,CLR,0.00,VWS V14.01,2013-05-08 07:42:00,
2013-05-08 03:47:00,57.8,49.9,29.94,North,351,0.0,0.0,75,0.00,,CLR,0.00,VWS V14.01,2013-05-08 07:47:00,
2013-05-08 03:52:00,57.7,50.2,29.94,North,351,0.0,0.0,76,0.00,,CLR,0.00,VWS V14.01,2013-05-08 07:52:00,
2013-05-08 03:57:00,57.6,50.5,29.94,North,351,0.0,0.0,77,0.00,,CLR,0.00,VWS V14.01,2013-05-08 07:57:00,
2013-05-08 04:02:00,57.3,50.2,29.94,North,351,0.0,0.0,77,0.00,,CLR,0.00,VWS V14.01,2013-05-08 08:02:00,
2013-05-08 04:07:00,57.2,50.1,29.94,North,351,0.0,0.0,77,0.00,,CLR,0.00,VWS V14.01,2013-05-08 08:07:00,
2013-05-08 04:12:00,56.9,49.8,29.94,North,351,0.0,0.0,77,0.00,,CLR,0.00,VWS V14.01,2013-05-08 08:12:00,
2013-05-08 04:17:00,56.7,49.6,29.94,North,351,0.0,0.0,77,0.00,,CLR,0.00,VWS V14.01,2013-05-08 08:17:00,
2013-05-08 04:22:00,56.4,49.3,29.94,North,351,0.0,0.0,77,0.00,,CLR,0.00,VWS V14.01,2013-05-08 08:22:00,
2013-05-08 04:27:00,56.1,49.0,29.94,North,351,0.0,0.0,77,0.00,,CLR,0.00,VWS V14.01,2013-05-08 08:27:00,
2013-05-08 04:32:00,55.8,48.7,29.94,North,351,0.0,0.0,77,0.00,,CLR,0.00,VWS V14.01,2013-05-08 08:32:00,
2013-05-08 04:37:00,55.5,48.4,29.94,North,351,0.0,0.0,77,0.00,,CLR,0.00,VWS V14.01,2013-05-08 08:37:00,
2013-05-08 04:43:00,55.3,48.6,29.94,North,351,0.0,0.0,78,0.00,,CLR,0.00,VWS V14.01,2013-05-08 08:43:00,
2013-05-08 04:48:00,55.3,49.2,29.94,North,351,0.0,0.0,80,0.00,,CLR,0.00,VWS V14.01,2013-05-08 08:48:00,
2013-05-08 04:53:00,55.1,49.0,29.94,North,351,0.0,0.0,80,0.00,,CLR,0.00,VWS V14.01,2013-05-08 08:53:00,
2013-05-08 04:58:00,54.9,49.2,29.95,North,351,0.0,0.0,81,0.00,,CLR,0.00,VWS V14.01,2013-05-08 08:58:00,
2013-05-08 05:03:00,54.8,49.1,29.95,North,351,0.0,0.0,81,0.00,,CLR,0.00,VWS V14.01,2013-05-08 09:03:00,
2013-05-08 05:08:00,54.6,49.2,29.95,North,351,0.0,0.0,82,0.00,,CLR,0.00,VWS V14.01,2013-05-08 09:08:00,
2013-05-08 05:13:00,54.4,49.0,29.95,North,351,0.0,0.0,82,0.00,,CLR,0.00,VWS V14.01,2013-05-08 09:13:00,
2013-05-08 05:18:00,54.2,48.8,29.95,North,351,0.0,0.0,82,0.00,,CLR,0.00,VWS V14.01,2013-05-08 09:18:00,
2013-05-08 05:23:00,54.0,48.6,29.94,North,351,0.0,0.0,82,0.00,,CLR,0.00,VWS V14.01,2013-05-08 09:23:00,
2013-05-08 05:28:00,53.8,48.4,29.94,North,351,0.0,0.0,82,0.00,,CLR,0.00,VWS V14.01,2013-05-08 09:28:00,
2013-05-08 05:33:00,53.6,48.2,29.94,North,351,0.0,0.0,82,0.00,,CLR,0.00,VWS V14.01,2013-05-08 09:33:00,
2013-05-08 05:38:00,53.4,48.0,29.94,North,351,0.0,0.0,82,0.00,,CLR,0.00,VWS V14.01,2013-05-08 09:38:00,
2013-05-08 05:43:00,53.3,48.3,29.95,North,351,0.0,0.0,83,0.00,,CLR,0.00,VWS V14.01,2013-05-08 09:43:00,
2013-05-08 05:48:00,53.2,48.5,29.95,North,351,0.0,0.0,84,0.00,,CLR,0.00,VWS V14.01,2013-05-08 09:48:00,
2013-05-08 05:53:00,53.1,48.4,29.95,North,351,0.0,0.0,84,0.00,,CLR,0.00,VWS V14.01,2013-05-08 09:53:00,
2013-05-08 05:58:00,53.0,48.3,29.95,North,351,0.0,0.0,84,0.00,,CLR,0.00,VWS V14.01,2013-05-08 09:58:00,
2013-05-08 06:03:00,52.9,48.5,29.95,North,351,0.0,0.0,85,0.00,,SCT220,0.00,VWS V14.01,2013-05-08 10:03:00,
2013-05-08 06:08:00,52.9,48.5,29.95,North,351,0.0,0.0,85,0.00,,SCT220,0.00,VWS V14.01,2013-05-08 10:08:00,
2013-05-08 06:13:00,52.8,48.7,29.95,North,351,0.0,0.0,86,0.00,,SCT220,0.00,VWS V14.01,2013-05-08 10:13:00,
2013-05-08 06:18:00,52.8,48.7,29.95,North,351,0.0,0.0,86,0.00,,SCT220,0.00,VWS V14.01,2013-05-08 10:18:00,
2013-05-08 06:23:00,52.7,48.6,29.95,North,355,0.0,0.0,86,0.00,,SCT220,0.00,VWS V14.01,2013-05-08 10:23:00,
2013-05-08 06:28:00,52.6,48.5,29.95,North,355,0.0,0.0,86,0.00,,SCT220,0.00,VWS V14.01,2013-05-08 10:28:00,
2013-05-08 06:33:00,52.5,48.4,29.95,North,355,0.0,0.0,86,0.00,,SCT220,0.00,VWS V14.01,2013-05-08 10:33:00,
2013-05-08 06:39:00,52.4,48.3,29.95,North,356,0.0,0.0,86,0.00,,SCT220,0.00,VWS V14.01,2013-05-08 10:39:00,
2013-05-08 06:44:00,52.2,48.2,29.95,North,355,0.0,0.0,86,0.00,,SCT220,0.00,VWS V14.01,2013-05-08 10:44:00,
2013-05-08 06:49:00,52.1,48.0,29.96,North,355,0.0,0.0,86,0.00,,SCT220,0.00,VWS V14.01,2013-05-08 10:49:00,
2013-05-08 06:54:00,51.9,48.2,29.96,North,355,0.0,0.0,87,0.00,,SCT220,0.00,VWS V14.01,2013-05-08 10:54:00,
2013-05-08 06:59:00,51.9,48.2,29.96,North,355,0.0,0.0,87,0.00,,SCT220,0.00,VWS V14.01,2013-05-08 10:59:00,
2013-05-08 07:04:00,51.9,48.2,29.96,North,355,0.0,0.0,87,0.00,,SCT230,0.00,VWS V14.01,2013-05-08 11:04:00,
2013-05-08 07:09:00,51.9,48.2,29.97,North,355,0.0,0.0,87,0.00,,SCT230,0.00,VWS V14.01,2013-05-08 11:09:00,
2013-05-08 07:14:00,52.2,48.8,29.97,North,355,0.0,0.0,88,0.00,,SCT230,0.00,VWS V14.01,2013-05-08 11:14:00,
2013-05-08 07:19:00,52.4,49.0,29.97,North,355,0.0,0.0,88,0.00,,SCT230,0.00,VWS V14.01,2013-05-08 11:19:00,
2013-05-08 07:24:00,52.6,49.2,29.96,North,355,0.0,0.0,88,0.00,,SCT230,0.00,VWS V14.01,2013-05-08 11:24:00,
2013-05-08 07:29:00,53.0,49.8,29.97,North,355,0.0,0.0,89,0.00,,SCT230,0.00,VWS V14.01,2013-05-08 11:29:00,
2013-05-08 07:34:00,53.5,50.3,29.97,North,355,0.0,0.0,89,0.00,,SCT230,0.00,VWS V14.01,2013-05-08 11:34:00,
2013-05-08 07:39:00,53.9,51.0,29.97,North,355,0.0,0.0,90,0.00,,SCT230,0.00,VWS V14.01,2013-05-08 11:39:00,
2013-05-08 07:44:00,54.7,51.8,29.97,North,356,0.0,0.0,90,0.00,,SCT230,0.00,VWS V14.01,2013-05-08 11:44:00,
2013-05-08 07:49:00,55.4,52.5,29.97,North,355,0.0,0.0,90,0.00,,SCT230,0.00,VWS V14.01,2013-05-08 11:49:00,
2013-05-08 07:54:00,55.9,53.0,29.97,North,356,0.0,0.0,90,0.00,,SCT230,0.00,VWS V14.01,2013-05-08 11:54:00,
2013-05-08 07:59:00,56.4,53.8,29.97,North,357,0.0,0.0,91,0.00,,SCT230,0.00,VWS V14.01,2013-05-08 11:59:00,
2013-05-08 08:04:00,57.2,54.6,29.97,North,357,0.0,0.0,91,0.00,,SCT230,0.00,VWS V14.01,2013-05-08 12:04:00,
2013-05-08 08:09:00,58.0,55.4,29.97,North,357,0.0,0.0,91,0.00,,SCT230,0.00,VWS V14.01,2013-05-08 12:09:00,
2013-05-08 08:14:00,58.8,55.9,29.97,North,357,0.0,0.0,90,0.00,,SCT230,0.00,VWS V14.01,2013-05-08 12:14:00,
2013-05-08 08:19:00,59.7,56.8,29.97,North,357,0.0,0.0,90,0.00,,SCT230,0.00,VWS V14.01,2013-05-08 12:19:00,
2013-05-08 08:24:00,60.5,56.9,29.97,North,357,0.0,0.0,88,0.00,,SCT230,0.00,VWS V14.01,2013-05-08 12:24:00,
2013-05-08 08:30:00,61.6,56.7,29.97,North,357,0.0,0.0,84,0.00,,SCT230,0.00,VWS V14.01,2013-05-08 12:30:00,
2013-05-08 08:35:00,62.6,56.3,29.97,North,357,0.0,0.0,80,0.00,,SCT230,0.00,VWS V14.01,2013-05-08 12:35:00,
2013-05-08 08:40:00,63.8,55.4,29.97,North,357,0.0,0.0,74,0.00,,SCT230,0.00,VWS V14.01,2013-05-08 12:40:00,
2013-05-08 08:45:00,64.7,55.9,29.97,North,357,0.0,0.0,73,0.00,,SCT230,0.00,VWS V14.01,2013-05-08 12:45:00,
2013-05-08 08:50:00,65.5,54.7,29.98,North,357,0.0,0.0,68,0.00,,SCT230,0.00,VWS V14.01,2013-05-08 12:50:00,
2013-05-08 08:55:00,66.1,54.4,29.98,North,357,0.0,0.0,66,0.00,,SCT230,0.00,VWS V14.01,2013-05-08 12:55:00,
2013-05-08 09:00:00,66.7,54.6,29.98,North,357,0.0,0.0,65,0.00,,SCT230,0.00,VWS V14.01,2013-05-08 13:00:00,
2013-05-08 09:05:00,67.3,55.2,29.98,North,357,0.0,0.0,65,0.00,,SCT230,0.00,VWS V14.01,2013-05-08 13:05:00,
2013-05-08 09:10:00,67.8,54.8,29.98,North,357,0.0,0.0,63,0.00,,SCT230,0.00,VWS V14.01,2013-05-08 13:10:00,
2013-05-08 09:15:00,68.0,55.0,29.98,North,357,0.0,0.0,63,0.00,,SCT230,0.00,VWS V14.01,2013-05-08 13:15:00,
2013-05-08 09:20:00,68.4,55.3,29.98,North,357,0.0,0.0,63,0.00,,SCT230,0.00,VWS V14.01,2013-05-08 13:20:00,
2013-05-08 09:25:00,68.9,55.8,29.98,North,357,0.0,0.0,63,0.00,,SCT230,0.00,VWS V14.01,2013-05-08 13:25:00,
2013-05-08 09:30:00,69.4,54.9,29.98,North,357,0.0,0.0,60,0.00,,SCT230,0.00,VWS V14.01,2013-05-08 13:30:00,
2013-05-08 09:35:00,69.8,56.2,29.98,North,357,0.0,0.0,62,0.00,,SCT230,0.00,VWS V14.01,2013-05-08 13:35:00,
2013-05-08 09:40:00,70.1,56.0,29.98,North,357,0.0,0.0,61,0.00,,SCT230,0.00,VWS V14.01,2013-05-08 13:40:00,
2013-05-08 09:45:00,70.7,56.2,29.98,North,357,0.0,0.0,60,0.00,,SCT230,0.00,VWS V14.01,2013-05-08 13:45:00,
2013-05-08 09:50:00,71.1,56.1,29.98,North,357,0.0,0.0,59,0.00,,SCT230,0.00,VWS V14.01,2013-05-08 13:50:00,
2013-05-08 09:55:00,71.5,56.0,29.98,North,357,0.0,0.0,58,0.00,,SCT230,0.00,VWS V14.01,2013-05-08 13:55:00,
2013-05-08 10:00:00,72.0,56.9,29.98,North,357,0.0,0.0,59,0.00,,SCT230,0.00,VWS V14.01,2013-05-08 14:00:00,
2013-05-08 10:05:00,72.5,56.4,29.98,North,357,0.0,0.0,57,0.00,,BKN230,0.00,VWS V14.01,2013-05-08 14:05:00,
2013-05-08 10:10:00,72.7,55.6,29.98,North,357,0.0,1.0,55,0.00,,BKN230,0.00,VWS V14.01,2013-05-08 14:10:00,
2013-05-08 10:16:00,72.9,57.3,29.98,North,357,4.0,5.0,58,0.00,,BKN230,0.00,VWS V14.01,2013-05-08 14:16:00,
2013-05-08 10:21:00,73.3,56.2,29.98,North,357,0.0,0.0,55,0.00,,BKN230,0.00,VWS V14.01,2013-05-08 14:21:00,
2013-05-08 10:26:00,73.6,56.5,29.98,North,357,0.0,0.0,55,0.00,,BKN230,0.00,VWS V14.01,2013-05-08 14:26:00,
2013-05-08 10:31:00,73.6,54.9,29.98,North,357,0.0,0.0,52,0.00,,BKN230,0.00,VWS V14.01,2013-05-08 14:31:00,
2013-05-08 10:36:00,73.8,56.1,29.98,North,357,0.0,0.0,54,0.00,,BKN230,0.00,VWS V14.01,2013-05-08 14:36:00,
2013-05-08 10:41:00,74.0,56.3,29.98,North,357,0.0,0.0,54,0.00,,BKN230,0.00,VWS V14.01,2013-05-08 14:41:00,
2013-05-08 10:46:00,74.5,56.3,29.98,North,357,0.0,0.0,53,0.00,,BKN230,0.00,VWS V14.01,2013-05-08 14:46:00,
2013-05-08 10:51:00,74.8,56.0,29.98,North,357,0.0,0.0,52,0.00,,BKN230,0.00,VWS V14.01,2013-05-08 14:51:00,
2013-05-08 10:56:00,75.2,56.9,29.98,North,357,0.0,0.0,53,0.00,,BKN230,0.00,VWS V14.01,2013-05-08 14:56:00,
2013-05-08 11:01:00,75.6,56.8,29.98,North,357,0.0,1.0,52,0.00,,BKN230,0.00,VWS V14.01,2013-05-08 15:01:00,
2013-05-08 11:06:00,75.8,56.4,29.98,North,357,0.0,0.0,51,0.00,,BKN230,0.00,VWS V14.01,2013-05-08 15:06:00,
2013-05-08 11:11:00,76.0,57.7,29.98,North,357,0.0,0.0,53,0.00,,BKN230,0.00,VWS V14.01,2013-05-08 15:11:00,
2013-05-08 11:16:00,76.2,56.8,29.98,North,357,2.0,2.0,51,0.00,,BKN230,0.00,VWS V14.01,2013-05-08 15:16:00,
2013-05-08 11:21:00,75.8,55.9,29.98,North,357,0.0,0.0,50,0.00,,BKN230,0.00,VWS V14.01,2013-05-08 15:21:00,
2013-05-08 11:26:00,75.9,57.0,29.98,North,357,0.0,0.0,52,0.00,,BKN230,0.00,VWS V14.01,2013-05-08 15:26:00,
2013-05-08 11:31:00,76.2,56.8,29.97,North,357,0.0,0.0,51,0.00,,BKN230,0.00,VWS V14.01,2013-05-08 15:31:00,
2013-05-08 11:36:00,76.5,55.9,29.97,NNW,346,7.0,8.0,49,0.00,,BKN230,0.00,VWS V14.01,2013-05-08 15:36:00,
2013-05-08 11:41:00,76.6,55.5,29.97,NNW,346,0.0,0.0,48,0.00,,BKN230,0.00,VWS V14.01,2013-05-08 15:41:00,
2013-05-08 11:48:00,77.0,56.4,29.97,NNW,346,0.0,0.0,49,0.00,,BKN230,0.00,VWS V14.01,2013-05-08 15:48:00,
2013-05-08 11:53:00,77.2,55.4,29.97,NNW,346,0.0,0.0,47,0.00,,BKN230,0.00,VWS V14.01,2013-05-08 15:53:00,
2013-05-08 11:58:00,77.4,56.2,29.97,NNW,341,1.0,7.0,48,0.00,,BKN230,0.00,VWS V14.01,2013-05-08 15:58:00,
2013-05-08 12:03:00,77.6,56.4,29.97,NNW,341,0.0,0.0,48,0.00,,BKN230,0.00,VWS V14.01,2013-05-08 16:03:00,
2013-05-08 12:08:00,77.8,55.4,29.97,NNW,341,0.0,0.0,46,0.00,,BKN230,0.00,VWS V14.01,2013-05-08 16:08:00,
2013-05-08 12:13:00,77.8,53.5,29.96,NNW,341,0.0,0.0,43,0.00,,BKN230,0.00,VWS V14.01,2013-05-08 16:13:00,
2013-05-08 12:18:00,77.8,56.0,29.97,NNW,341,0.0,0.0,47,0.00,,BKN230,0.00,VWS V14.01,2013-05-08 16:18:00,
2013-05-08 12:23:00,78.3,57.0,29.96,NNW,341,0.0,0.0,48,0.00,,BKN230,0.00,VWS V14.01,2013-05-08 16:23:00,
2013-05-08 12:28:00,78.6,54.3,29.96,NNW,341,0.0,1.0,43,0.00,,BKN230,0.00,VWS V14.01,2013-05-08 16:28:00,
2013-05-08 12:33:00,78.7,53.0,29.96,NNW,341,0.0,0.0,41,0.00,,BKN230,0.00,VWS V14.01,2013-05-08 16:33:00,
2013-05-08 12:38:00,78.8,54.4,29.96,NNW,341,0.0,0.0,43,0.00,,BKN230,0.00,VWS V14.01,2013-05-08 16:38:00,
2013-05-08 12:43:00,78.9,55.2,29.96,NNW,341,0.0,0.0,44,0.00,,BKN230,0.00,VWS V14.01,2013-05-08 16:43:00,
2013-05-08 12:48:00,78.8,55.1,29.96,NNW,341,0.0,1.0,44,0.00,,BKN230,0.00,VWS V14.01,2013-05-08 16:48:00,
2013-05-08 12:53:00,78.9,53.9,29.95,NNW,346,0.0,1.0,42,0.00,,BKN230,0.00,VWS V14.01,2013-05-08 16:53:00,
2013-05-08 12:58:00,78.8,54.4,29.95,NNW,346,0.0,0.0,43,0.00,,BKN230,0.00,VWS V14.01,2013-05-08 16:58:00,
2013-05-08 13:03:00,78.5,52.9,29.95,NNW,346,0.0,0.0,41,0.00,,BKN230,0.00,VWS V14.01,2013-05-08 17:03:00,
2013-05-08 13:08:00,78.0,53.1,29.95,NNW,346,0.0,0.0,42,0.00,,BKN230,0.00,VWS V14.01,2013-05-08 17:08:00,
2013-05-08 13:13:00,77.6,53.4,29.95,NNW,346,0.0,0.0,43,0.00,,BKN230,0.00,VWS V14.01,2013-05-08 17:13:00,
2013-05-08 13:18:00,77.2,53.6,29.95,NNW,346,0.0,0.0,44,0.00,,BKN230,0.00,VWS V14.01,2013-05-08 17:18:00,
2013-05-08 13:23:00,76.9,52.1,29.95,NNW,346,0.0,0.0,42,0.00,,BKN230,0.00,VWS V14.01,2013-05-08 17:23:00,
2013-05-08 13:29:00,76.6,51.2,29.95,NNW,346,0.0,0.0,41,0.00,,BKN230,0.00,VWS V14.01,2013-05-08 17:29:00,
2013-05-08 13:34:00,76.4,52.3,29.95,NNW,346,0.0,0.0,43,0.00,,BKN230,0.00,VWS V14.01,2013-05-08 17:34:00,
2013-05-08 13:39:00,76.3,53.4,29.95,NNW,346,0.0,0.0,45,0.00,,BKN230,0.00,VWS V14.01,2013-05-08 17:39:00,
2013-05-08 13:44:00,76.9,52.1,29.94,NNW,346,0.0,0.0,42,0.00,,BKN230,0.00,VWS V14.01,2013-05-08 17:44:00,
2013-05-08 13:49:00,78.1,55.0,29.94,NNW,346,0.0,1.0,45,0.00,,BKN230,0.00,VWS V14.01,2013-05-08 17:49:00,
2013-05-08 13:54:00,79.2,52.8,29.94,NNW,341,3.0,5.0,40,0.00,,BKN230,0.00,VWS V14.01,2013-05-08 17:54:00,
2013-05-08 13:59:00,79.6,53.2,29.94,NNW,341,0.0,0.0,40,0.00,,BKN230,0.00,VWS V14.01,2013-05-08 17:59:00,
2013-05-08 14:04:00,80.0,52.8,29.94,NNW,341,1.0,3.0,39,0.00,,BKN230,0.00,VWS V14.01,2013-05-08 18:04:00,
2013-05-08 14:09:00,80.1,54.3,29.94,NNW,341,1.0,1.0,41,0.00,,BKN230,0.00,VWS V14.01,2013-05-08 18:09:00,
2013-05-08 14:14:00,79.8,53.4,29.93,NNW,341,0.0,0.0,40,0.00,,BKN230,0.00,VWS V14.01,2013-05-08 18:14:00,
2013-05-08 14:19:00,80.1,51.5,29.93,NNW,341,0.0,1.0,37,0.00,,BKN230,0.00,VWS V14.01,2013-05-08 18:19:00,
2013-05-08 14:24:00,80.4,51.8,29.93,NNW,341,0.0,0.0,37,0.00,,BKN230,0.00,VWS V14.01,2013-05-08 18:24:00,
2013-05-08 14:29:00,80.6,52.0,29.93,NNW,341,0.0,0.0,37,0.00,,BKN230,0.00,VWS V14.01,2013-05-08 18:29:00,
2013-05-08 14:34:00,81.1,55.2,29.93,NNW,341,0.0,0.0,41,0.00,,BKN230,0.00,VWS V14.01,2013-05-08 18:34:00,
2013-05-08 14:39:00,81.4,53.4,29.92,NW,320,2.0,5.0,38,0.00,,BKN230,0.00,VWS V14.01,2013-05-08 18:39:00,
2013-05-08 14:44:00,81.3,52.6,29.92,NW,313,0.0,3.0,37,0.00,,BKN230,0.00,VWS V14.01,2013-05-08 18:44:00,
2013-05-08 14:49:00,81.0,52.3,29.92,NW,312,0.0,1.0,37,0.00,,BKN230,0.00,VWS V14.01,2013-05-08 18:49:00,
2013-05-08 14:54:00,81.2,54.6,29.92,WNW,288,0.0,8.0,40,0.00,,BKN230,0.00,VWS V14.01,2013-05-08 18:54:00,
2013-05-08 14:59:00,81.5,52.7,29.92,WNW,288,2.0,5.0,37,0.00,,BKN230,0.00,VWS V14.01,2013-05-08 18:59:00,
2013-05-08 15:04:00,81.4,53.4,29.92,WNW,288,3.0,3.0,38,0.00,,BKN230,0.00,VWS V14.01,2013-05-08 19:04:00,
2013-05-08 15:09:00,81.5,53.5,29.92,WNW,288,3.0,6.0,38,0.00,,BKN230,0.00,VWS V14.01,2013-05-08 19:09:00,
2013-05-08 15:14:00,81.6,52.8,29.92,WNW,283,7.0,8.0,37,0.00,,BKN230,0.00,VWS V14.01,2013-05-08 19:14:00,
2013-05-08 15:19:00,81.7,52.2,29.92,West,260,0.0,1.0,36,0.00,,BKN230,0.00,VWS V14.01,2013-05-08 19:19:00,
2013-05-08 15:24:00,81.9,52.3,29.92,West,260,0.0,2.0,36,0.00,,BKN230,0.00,VWS V14.01,2013-05-08 19:24:00,
2013-05-08 15:29:00,82.0,51.7,29.92,West,261,0.0,1.0,35,0.00,,BKN230,0.00,VWS V14.01,2013-05-08 19:29:00,
2013-05-08 15:34:00,82.0,51.7,29.91,West,259,0.0,3.0,35,0.00,,BKN230,0.00,VWS V14.01,2013-05-08 19:34:00,
2013-05-08 15:39:00,82.1,51.8,29.91,West,259,1.0,1.0,35,0.00,,BKN230,0.00,VWS V14.01,2013-05-08 19:39:00,
2013-05-08 15:44:00,82.1,52.5,29.91,West,259,0.0,3.0,36,0.00,,BKN230,0.00,VWS V14.01,2013-05-08 19:44:00,
2013-05-08 15:50:00,82.1,51.8,29.91,West,259,4.0,5.0,35,0.00,,BKN230,0.00,VWS V14.01,2013-05-08 19:50:00,
2013-05-08 15:55:00,82.2,54.1,29.91,WNW,294,2.0,4.0,38,0.00,,BKN230,0.00,VWS V14.01,2013-05-08 19:55:00,
2013-05-08 16:00:00,82.2,54.1,29.91,NW,313,7.0,8.0,38,0.00,,BKN230,0.00,VWS V14.01,2013-05-08 20:00:00,
2013-05-08 16:05:00,81.9,55.2,29.91,WNW,303,1.0,14.0,40,0.00,,BKN230,0.00,VWS V14.01,2013-05-08 20:05:00,
2013-05-08 16:10:00,81.5,55.5,29.92,WNW,290,4.0,6.0,41,0.00,,BKN230,0.00,VWS V14.01,2013-05-08 20:10:00,
2013-05-08 16:15:00,81.1,55.2,29.92,WNW,299,0.0,3.0,41,0.00,,BKN230,0.00,VWS V14.01,2013-05-08 20:15:00,
2013-05-08 16:20:00,81.0,54.4,29.92,NW,307,1.0,1.0,40,0.00,,BKN230,0.00,VWS V14.01,2013-05-08 20:20:00,
2013-05-08 16:25:00,80.5,55.3,29.92,NNE,26,1.0,5.0,42,0.00,,BKN230,0.00,VWS V14.01,2013-05-08 20:25:00,
2013-05-08 16:30:00,79.9,56.1,29.92,NNE,18,0.0,1.0,44,0.00,,BKN230,0.00,VWS V14.01,2013-05-08 20:30:00,
2013-05-08 16:35:00,79.1,54.7,29.92,North,3,1.0,2.0,43,0.00,,BKN230,0.00,VWS V14.01,2013-05-08 20:35:00,
2013-05-08 16:40:00,78.5,56.0,29.92,NE,34,2.0,4.0,46,0.00,,BKN230,0.00,VWS V14.01,2013-05-08 20:40:00,
2013-05-08 16:45:00,78.1,54.4,29.92,NE,35,1.0,2.0,44,0.00,,BKN230,0.00,VWS V14.01,2013-05-08 20:45:00,
2013-05-08 16:50:00,78.0,53.7,29.92,NE,37,1.0,1.0,43,0.00,,BKN230,0.00,VWS V14.01,2013-05-08 20:50:00,
2013-05-08 16:55:00,77.9,52.3,29.91,NE,49,2.0,4.0,41,0.00,,BKN230,0.00,VWS V14.01,2013-05-08 20:55:00,
2013-05-08 17:00:00,77.7,51.5,29.91,NE,43,1.0,1.0,40,0.00,,BKN230,0.00,VWS V14.01,2013-05-08 21:00:00,
2013-05-08 17:05:00,77.9,53.0,29.91,NE,43,0.0,2.0,42,0.00,,-RA,0.00,VWS V14.01,2013-05-08 21:05:00,
2013-05-08 17:10:00,77.8,50.2,29.91,NE,52,2.0,3.0,38,0.00,,-RA,0.00,VWS V14.01,2013-05-08 21:10:00,
2013-05-08 17:15:00,78.0,51.8,29.91,NE,52,0.0,0.0,40,0.00,,-RA,0.00,VWS V14.01,2013-05-08 21:15:00,
2013-05-08 17:20:00,78.3,52.0,29.91,NE,52,0.0,0.0,40,0.00,,-RA,0.00,VWS V14.01,2013-05-08 21:20:00,
2013-05-08 17:25:00,78.3,52.7,29.91,NE,52,0.0,1.0,41,0.00,,-RA,0.00,VWS V14.01,2013-05-08 21:25:00,
2013-05-08 17:30:00,78.5,52.9,29.91,NE,52,0.0,0.0,41,0.00,,-RA,0.00,VWS V14.01,2013-05-08 21:30:00,
2013-05-08 17:35:00,78.9,52.5,29.91,NE,52,1.0,3.0,40,0.00,,-RA,0.00,VWS V14.01,2013-05-08 21:35:00,
2013-05-08 17:40:00,79.1,52.0,29.91,NE,52,0.0,1.0,39,0.00,,-RA,0.00,VWS V14.01,2013-05-08 21:40:00,
2013-05-08 17:45:00,79.4,53.0,29.90,NNE,22,0.0,4.0,40,0.00,,-RA,0.00,VWS V14.01,2013-05-08 21:45:00,
2013-05-08 17:50:00,79.4,52.3,29.90,NW,315,0.0,0.0,39,0.00,,-RA,0.00,VWS V14.01,2013-05-08 21:50:00,
2013-05-08 17:55:00,79.4,54.3,29.90,NW,315,0.0,0.0,42,0.00,,-RA,0.00,VWS V14.01,2013-05-08 21:55:00,
2013-05-08 18:01:00,79.3,53.6,29.90,NW,315,0.0,0.0,41,0.00,,-RA,0.00,VWS V14.01,2013-05-08 22:01:00,
2013-05-08 18:06:00,79.2,52.1,29.90,NW,315,0.0,1.0,39,0.00,,BKN210,0.00,VWS V14.01,2013-05-08 22:06:00,
2013-05-08 18:11:00,79.1,52.7,29.90,NW,310,1.0,2.0,40,0.00,,BKN210,0.00,VWS V14.01,2013-05-08 22:11:00,
2013-05-08 18:16:00,78.9,51.9,29.90,WNW,284,0.0,4.0,39,0.00,,BKN210,0.00,VWS V14.01,2013-05-08 22:16:00,
2013-05-08 18:21:00,78.7,51.0,29.90,WNW,297,0.0,6.0,38,0.00,,BKN210,0.00,VWS V14.01,2013-05-08 22:21:00,
2013-05-08 18:26:00,78.5,51.5,29.90,WNW,297,1.0,3.0,39,0.00,,BKN210,0.00,VWS V14.01,2013-05-08 22:26:00,
2013-05-08 18:31:00,78.4,50.7,29.90,WNW,292,3.0,3.0,38,0.00,,BKN210,0.00,VWS V14.01,2013-05-08 22:31:00,
2013-05-08 18:36:00,78.1,51.8,29.91,NW,324,2.0,9.0,40,0.00,,BKN210,0.00,VWS V14.01,2013-05-08 22:36:00,
2013-05-08 18:41:00,77.7,52.8,29.90,NW,315,0.0,1.0,42,0.00,,BKN210,0.00,VWS V14.01,2013-05-08 22:41:00,
2013-05-08 18:46:00,77.5,53.9,29.90,NNW,332,2.0,3.0,44,0.00,,BKN210,0.00,VWS V14.01,2013-05-08 22:46:00,
2013-05-08 18:51:00,77.3,53.7,29.90,North,351,0.0,9.0,44,0.00,,BKN210,0.00,VWS V14.01,2013-05-08 22:51:00,
2013-05-08 18:56:00,77.1,53.5,29.90,North,351,0.0,5.0,44,0.00,,BKN210,0.00,VWS V14.01,2013-05-08 22:56:00,
2013-05-08 19:01:00,77.1,54.2,29.90,NNW,336,5.0,5.0,45,0.00,,BKN210,0.00,VWS V14.01,2013-05-08 23:01:00,
2013-05-08 19:06:00,76.9,53.3,29.90,North,1,0.0,1.0,44,0.00,,BKN210,0.00,VWS V14.01,2013-05-08 23:06:00,
2013-05-08 19:11:00,76.8,52.6,29.90,NNW,336,0.0,5.0,43,0.00,,BKN210,0.00,VWS V14.01,2013-05-08 23:11:00,
2013-05-08 19:16:00,76.7,51.2,29.90,NNW,336,2.0,2.0,41,0.00,,BKN210,0.00,VWS V14.01,2013-05-08 23:16:00,
2013-05-08 19:21:00,76.5,51.1,29.90,NNW,341,0.0,3.0,41,0.00,,BKN210,0.00,VWS V14.01,2013-05-08 23:21:00,
2013-05-08 19:26:00,76.3,52.2,29.90,NNW,336,1.0,2.0,43,0.00,,BKN210,0.00,VWS V14.01,2013-05-08 23:26:00,
2013-05-08 19:31:00,76.2,50.8,29.89,NNW,336,0.0,1.0,41,0.00,,BKN210,0.00,VWS V14.01,2013-05-08 23:31:00,
2013-05-08 19:36:00,76.1,50.7,29.90,NNW,336,0.0,5.0,41,0.00,,BKN210,0.00,VWS V14.01,2013-05-08 23:36:00,
2013-05-08 19:41:00,76.0,50.6,29.89,NNW,336,0.0,2.0,41,0.00,,BKN210,0.00,VWS V14.01,2013-05-08 23:41:00,
2013-05-08 19:46:00,75.8,49.8,29.89,NNW,336,1.0,2.0,40,0.00,,BKN210,0.00,VWS V14.01,2013-05-08 23:46:00,
2013-05-08 19:51:00,75.7,49.7,29.90,NNW,336,0.0,0.0,40,0.00,,BKN210,0.00,VWS V14.01,2013-05-08 23:51:00,
2013-05-08 19:56:00,75.7,50.4,29.90,NNW,336,0.0,0.0,41,0.00,,BKN210,0.00,VWS V14.01,2013-05-08 23:56:00,
2013-05-08 20:01:00,75.6,49.6,29.89,NNW,336,0.0,0.0,40,0.00,,BKN210,0.00,VWS V14.01,2013-05-09 00:01:00,
2013-05-08 20:07:00,75.6,50.3,29.90,NNW,336,0.0,0.0,41,0.00,,BKN210,0.00,VWS V14.01,2013-05-09 00:07:00,
2013-05-08 20:12:00,75.6,50.3,29.90,NNW,336,0.0,1.0,41,0.00,,BKN210,0.00,VWS V14.01,2013-05-09 00:12:00,
2013-05-08 20:17:00,75.5,50.2,29.90,NNW,336,0.0,1.0,41,0.00,,BKN210,0.00,VWS V14.01,2013-05-09 00:17:00,
2013-05-08 20:22:00,75.3,50.7,29.90,NNW,336,0.0,0.0,42,0.00,,BKN210,0.00,VWS V14.01,2013-05-09 00:22:00,
2013-05-08 20:27:00,75.2,50.6,29.90,NNW,336,0.0,0.0,42,0.00,,BKN210,0.00,VWS V14.01,2013-05-09 00:27:00,
2013-05-08 20:32:00,75.0,50.4,29.90,NNW,336,0.0,0.0,42,0.00,,BKN210,0.00,VWS V14.01,2013-05-09 00:32:00,
2013-05-08 20:37:00,74.9,50.3,29.90,NNW,336,0.0,0.0,42,0.00,,BKN210,0.00,VWS V14.01,2013-05-09 00:37:00,
2013-05-08 20:42:00,74.7,50.1,29.90,NNW,336,0.0,0.0,42,0.00,,BKN210,0.00,VWS V14.01,2013-05-09 00:42:00,
2013-05-08 20:47:00,74.5,51.2,29.90,NNW,336,0.0,0.0,44,0.00,,BKN210,0.00,VWS V14.01,2013-05-09 00:47:00,
2013-05-08 20:52:00,74.2,50.3,29.90,NNW,336,0.0,0.0,43,0.00,,BKN210,0.00,VWS V14.01,2013-05-09 00:52:00,
2013-05-08 20:57:00,73.9,51.2,29.90,NNW,336,0.0,0.0,45,0.00,,BKN210,0.00,VWS V14.01,2013-05-09 00:57:00,
2013-05-08 21:02:00,73.3,51.3,29.90,NNW,336,0.0,0.0,46,0.00,,BKN230,0.00,VWS V14.01,2013-05-09 01:02:00,
2013-05-08 21:07:00,72.7,51.3,29.90,NNW,336,0.0,0.0,47,0.00,,BKN230,0.00,VWS V14.01,2013-05-09 01:07:00,
2013-05-08 21:12:00,72.0,51.3,29.91,NNW,336,0.0,0.0,48,0.00,,BKN230,0.00,VWS V14.01,2013-05-09 01:12:00,
2013-05-08 21:17:00,71.2,50.5,29.91,NNW,336,0.0,0.0,48,0.00,,BKN230,0.00,VWS V14.01,2013-05-09 01:17:00,
2013-05-08 21:22:00,70.5,51.0,29.91,NNW,336,0.0,0.0,50,0.00,,BKN230,0.00,VWS V14.01,2013-05-09 01:22:00,
2013-05-08 21:27:00,69.9,51.0,29.91,NNW,336,0.0,0.0,51,0.00,,BKN230,0.00,VWS V14.01,2013-05-09 01:27:00,
2013-05-08 21:32:00,69.3,50.9,29.91,NNW,336,0.0,0.0,52,0.00,,BKN230,0.00,VWS V14.01,2013-05-09 01:32:00,
2013-05-08 21:37:00,68.8,51.0,29.91,NNW,336,0.0,0.0,53,0.00,,BKN230,0.00,VWS V14.01,2013-05-09 01:37:00,
2013-05-08 21:42:00,68.1,50.8,29.91,NNW,336,0.0,0.0,54,0.00,,BKN230,0.00,VWS V14.01,2013-05-09 01:42:00,
2013-05-08 21:47:00,67.6,50.9,29.91,NNW,336,0.0,0.0,55,0.00,,BKN230,0.00,VWS V14.01,2013-05-09 01:47:00,
2013-05-08 21:53:00,67.0,51.3,29.91,NNW,336,0.0,0.0,57,0.00,,BKN230,0.00,VWS V14.01,2013-05-09 01:53:00,
2013-05-08 21:58:00,66.4,50.7,29.91,NNW,336,0.0,0.0,57,0.00,,BKN230,0.00,VWS V14.01,2013-05-09 01:58:00,
2013-05-08 22:03:00,66.0,51.7,29.92,NNW,336,0.0,0.0,60,0.00,,BKN230,0.00,VWS V14.01,2013-05-09 02:03:00,
2013-05-08 22:08:00,65.8,53.3,29.92,NNW,336,0.0,0.0,64,0.00,,BKN230,0.00,VWS V14.01,2013-05-09 02:08:00,
2013-05-08 22:13:00,65.5,53.4,29.92,NNW,336,0.0,0.0,65,0.00,,SCT230,0.00,VWS V14.01,2013-05-09 02:13:00,
2013-05-08 22:18:00,65.2,53.2,29.92,NNW,336,0.0,0.0,65,0.00,,SCT230,0.00,VWS V14.01,2013-05-09 02:18:00,
2013-05-08 22:23:00,64.8,52.8,29.92,NNW,336,0.0,0.0,65,0.00,,SCT230,0.00,VWS V14.01,2013-05-09 02:23:00,
2013-05-08 22:28:00,64.4,52.4,29.92,NNW,336,0.0,0.0,65,0.00,,SCT230,0.00,VWS V14.01,2013-05-09 02:28:00,
2013-05-08 22:33:00,64.1,52.5,29.92,NNW,336,0.0,0.0,66,0.00,,SCT230,0.00,VWS V14.01,2013-05-09 02:33:00,
2013-05-08 22:38:00,63.7,52.1,29.92,NNW,336,0.0,0.0,66,0.00,,SCT230,0.00,VWS V14.01,2013-05-09 02:38:00,
2013-05-08 22:43:00,63.4,52.3,29.92,NNW,336,0.0,0.0,67,0.00,,SCT230,0.00,VWS V14.01,2013-05-09 02:43:00,
2013-05-08 22:48:00,63.2,52.5,29.92,NNW,336,0.0,0.0,68,0.00,,SCT230,0.00,VWS V14.01,2013-05-09 02:48:00,
2013-05-08 22:53:00,62.8,52.1,29.92,NNW,336,0.0,0.0,68,0.00,,SCT230,0.00,VWS V14.01,2013-05-09 02:53:00,
2013-05-08 22:58:00,62.4,52.1,29.92,NNW,336,0.0,0.0,69,0.00,,SCT230,0.00,VWS V14.01,2013-05-09 02:58:00,
2013-05-08 23:03:00,62.1,51.8,29.92,NNW,336,0.0,0.0,69,0.00,,SCT230,0.00,VWS V14.01,2013-05-09 03:03:00,
2013-05-08 23:08:00,61.8,52.3,29.92,NNW,336,0.0,0.0,71,0.00,,SCT230,0.00,VWS V14.01,2013-05-09 03:08:00,
2013-05-08 23:13:00,61.7,53.3,29.92,NNW,336,0.0,0.0,74,0.00,,FEW130,0.00,VWS V14.01,2013-05-09 03:13:00,
2013-05-08 23:18:00,61.4,53.0,29.91,NNW,336,0.0,0.0,74,0.00,,FEW130,0.00,VWS V14.01,2013-05-09 03:18:00,
2013-05-08 23:23:00,61.2,53.2,29.91,NNW,336,0.0,0.0,75,0.00,,FEW130,0.00,VWS V14.01,2013-05-09 03:23:00,
2013-05-08 23:28:00,60.9,53.3,29.91,NNW,336,0.0,0.0,76,0.00,,FEW130,0.00,VWS V14.01,2013-05-09 03:28:00,
2013-05-08 23:33:00,60.4,52.8,29.91,NNW,336,0.0,0.0,76,0.00,,FEW130,0.00,VWS V14.01,2013-05-09 03:33:00,
2013-05-08 23:38:00,60.4,52.5,29.91,NNW,336,0.0,0.0,75,0.00,,FEW130,0.00,VWS V14.01,2013-05-09 03:38:00,
2013-05-08 23:43:00,60.0,52.4,29.91,NNW,336,0.0,0.0,76,0.00,,FEW130,0.00,VWS V14.01,2013-05-09 03:43:00,
2013-05-08 23:48:00,59.7,52.1,29.91,NNW,336,0.0,0.0,76,0.00,,FEW130,0.00,VWS V14.01,2013-05-09 03:48:00,
2013-05-08 23:53:00,59.4,51.8,29.91,NNW,336,0.0,0.0,76,0.00,,FEW130,0.00,VWS V14.01,2013-05-09 03:53:00,
2013-05-08 23:58:00,59.2,52.0,29.91,NNW,336,0.0,0.0,77,0.00,,FEW130,0.00,VWS V14.01,2013-05-09 03:58:00,